{"data":{"norad_id":64795,"epoch":"2026-09-20T13:55:36.814944Z","epoch_age_seconds":120637,"freshness":"FRESH","line1":"1 64795U 25150F   26263.58028721  .00003786  00000+0  32488-3 0  9997","line2":"2 64795  70.0031   2.9015 0003250 273.6636  86.4151 14.98336025 65719","mean_motion":14.98336025,"eccentricity":0.000325,"inclination_deg":70.0031,"raan_deg":2.9015,"arg_perigee_deg":273.6636,"mean_anomaly_deg":86.4151,"bstar":0.00032488,"rev_number":6571,"period_min":96.106612667209,"perigee_km":569.77845255712,"apogee_km":574.29606582559,"semimajor_km":6950.1742591914,"source":"CELESTRAK","updated_at":"2026-09-21T09:00:35.443295Z"}}